Terminal Aerodrome Forecast
Issued by NWS

Home | Current Version | Previous Version | Graphics & Text | Print | Product List | Glossary On
Versions: 1 2 3 4 5 6 7 8 9 10 11 12 13 14 15 16
000
FTUS43 KABR 020526
TAFATY
TAF
KATY 020526Z 0206/0306 24006KT P6SM SKC
     FM021400 34014KT P6SM SKC
     FM021600 35016G23KT P6SM SKC=

USA.gov is the U.S. government's official web portal to all federal, state and local government web resources and services.